Regional Weather Roundup
Issued by NWS Sioux Falls, SD

Home | Current Version | Previous Version | Text Only | Print | Product List | Glossary Off
Versions: 1 2 3 4 5 6 7 8 9 10 11 12 13 14 15 16 17 18 19 20 21 22 23 24 25 26 27 28 29 30 31 32 33 34 35 36 37 38 39 40 41 42 43 44 45 46 47 48 49 50

000
ASUS43 KFSD 211202
RWRFSD

WEATHER ROUNDUP FOR SE SOUTH DAKOTA/SW MINNESOTA/NW IOWA
NATIONAL WEATHER SERVICE SIOUX FALLS SD
600 AM CST TUE NOV 21 2017

NOTE: "FAIR" INDICATES FEW OR NO CLOUDS BELOW 12,000 FEET WITH NO
SIGNIFICANT WEATHER AND OR OBSTRUCTIONS TO VISIBILITY.


SDZ038>040-050-052>070-211300-
SOUTHEAST SOUTH DAKOTA

CITY           SKY/WX    TMP DP  RH WIND       PRES   REMARKS
BROOKINGS      FLURRIES  17   9  70 NW25G31   29.99R WCI  -1
CHAMBERLAIN    CLEAR     24   9  53 NW23      30.14R WCI   8
6HR MIN TEMP:  24; 6HR MAX TEMP:  43;

HURON          CLEAR     15   6  67 NW21G33   30.12R WCI  -2
6HR MIN TEMP:  15; 6HR MAX TEMP:  39;

MADISON        FAIR      16   7  67 NW23G33   30.01R WCI  -2
MITCHELL       PTCLDY    20   6  55 NW30G38   30.12R WCI   1
6HR MIN TEMP:  20; 6HR MAX TEMP:  41;

SIOUX FALLS    MOCLDY    22   9  57 NW21G33   30.01R WCI   6
6HR MIN TEMP:  22; 6HR MAX TEMP:  40;

WINNER         CLOUDY    26  18  71 N22G28    30.14R WCI  12
YANKTON        CLOUDY    34   7  32 NW23G32   30.03R WCI  22
$$

MNZ071-072-080-081-089-090-097-098-211300-
SOUTHWEST MINNESOTA

CITY           SKY/WX    TMP DP  RH WIND       PRES   REMARKS
FAIRMONT       MOCLDY    27  16  63 NW28G41   29.88R WCI  11
JACKSON        CLOUDY    28  14  54 NW25G43   29.89R WCI  14
MARSHALL       CLOUDY    20  10  65 NW25G33   29.96R WCI   2
6HR MIN TEMP:  20; 6HR MAX TEMP:  36;

MONTEVIDEO     CLOUDY    21  10  63 N21G29    29.95R WCI   6
PIPESTONE      PTCLDY    18   7  62 N26G38    29.97R WCI  -1
REDWOOD FALLS  MOCLDY    22  10  60 NW26G36   29.92R WCI   5
WINDOM           N/A     21   7  53 NW25G31   29.91R WCI   4
WORTHINGTON    CLOUDY    25  13  60 NW25G33   29.93R WCI   9
$$

IAZ001>003-012>014-020>022-031-032-NEZ013-014-SDZ071-211300-
NORTHWEST IOWA

CITY           SKY/WX    TMP DP  RH WIND       PRES   REMARKS
CHEROKEE       CLOUDY    38  19  47 NW12G25   29.92R
DENISON        CLOUDY    39  19  45 NW12G23   29.94R
ESTHERVILLE    CLOUDY    30  16  56 NW22G37   29.88R WCI  17
LE MARS        CLOUDY    37  19  48 NW24G33   29.95R
ORANGE CITY    CLOUDY    36  19  51 NW24G31   29.94R
SHELDON        CLOUDY    32  14  47 NW29G40   29.91R WCI  18
SIOUX CITY     CLOUDY    40  22  48 NW16G25   29.95R
6HR MIN TEMP:  35; 6HR MAX TEMP:  43;

SPENCER        CLOUDY    34  13  41 NW29G40   29.90R WCI  20
6HR MIN TEMP:  34; 6HR MAX TEMP:  41;

STORM LAKE     CLOUDY    37  19  48 NW23G31   29.89R
$$

ABBREVIATIONS USED IN REMARKS
   TC - TEMPERATURE IN CELSIUS
  WCI - WIND CHILL INDEX
   HX - HEAT INDEX
  VSB - VISIBILITY





USA.gov is the U.S. government's official web portal to all federal, state and local government web resources and services.